Total_Precipitation_Accumulation
1.05 1.10 1.15 1.24 1.29 1.35 1.38 1.40 1.38 1.35 1.37 1.40 1.44 1.47 1.48 1.52 1.67 1.76 1.65 1.85 1.97 2.01 1.83 1.73 1.67 1.68 1.68 1.54 1.56 1.65 1.71 1.92 1.90 1.53 1.48 1.60 1.71 1.61 1.65 1.59 1.48 1.50 1.37
0.97 1.11 1.16 1.28 1.31 1.27 1.31 1.51 1.55 1.51 1.48 1.47 1.51 1.60 1.58 1.60 1.70 1.65 1.52 1.61 1.80 2.01 2.19 2.24 2.02 1.95 1.92 1.75 1.72 1.70 1.73 1.88 1.93 1.82 1.72 1.79 1.82 1.75 1.72 1.52 1.28 1.20 1.25
0.88 1.01 1.18 1.27 1.34 1.43 1.56 1.73 1.82 1.75 1.69 1.72 1.76 1.71 1.71 1.73 1.68 1.61 1.60 1.65 1.77 1.85 2.05 2.23 2.22 2.30 2.09 2.02 1.92 1.83 1.79 1.77 1.92 1.86 1.73 1.91 1.93 1.91 1.79 1.46 1.32 1.34 1.20
1.08 1.21 1.31 1.49 1.63 1.72 1.72 1.81 1.84 1.85 1.89 1.89 1.91 1.84 1.80 1.84 1.80 1.75 1.72 1.72 1.79 1.80 1.83 1.89 2.01 2.25 2.24 2.23 2.08 2.06 2.07 2.06 2.11 2.04 1.95 2.06 2.22 2.25 2.08 1.71 1.54 1.48 1.35
1.40 1.44 1.47 1.58 1.70 1.85 2.02 2.06 2.07 2.07 2.01 2.11 2.07 1.98 1.94 1.95 1.80 1.87 2.03 2.03 2.10 1.96 1.87 1.81 1.79 2.03 2.12 2.12 1.91 1.98 2.13 2.18 2.21 2.18 2.16 2.21 2.26 2.38 2.11 1.85 1.66 1.63 1.56
1.88 1.97 2.06 2.15 2.23 2.29 2.34 2.34 2.39 2.37 2.30 2.20 2.10 2.10 2.09 1.90 2.01 2.06 1.98 2.04 2.22 2.22 2.11 2.04 1.93 1.88 1.87 1.90 1.93 1.97 2.03 2.03 2.06 2.10 2.07 2.10 2.17 2.28 2.38 2.19 1.94 1.77 1.62
2.00 2.10 2.21 2.29 2.40 2.49 2.51 2.50 2.41 2.37 2.31 2.20 2.19 2.22 2.16 2.19 2.15 1.92 1.78 1.79 1.87 1.98 2.06 2.05 1.84 1.71 1.84 1.78 1.94 1.97 1.83 1.76 1.73 1.81 1.84 1.90 2.27 2.52 2.73 2.45 2.20 1.99 1.75
2.00 2.12 2.16 2.23 2.31 2.45 2.58 2.49 2.34 2.28 2.23 2.20 2.19 2.09 2.03 1.98 1.98 1.76 1.71 1.65 1.63 1.61 1.74 1.84 1.81 1.72 1.72 1.77 1.73 1.56 1.44 1.44 1.44 1.36 1.41 1.62 1.98 2.45 2.70 2.69 2.64 2.40 2.13
1.67 1.80 1.87 2.01 2.18 2.32 2.38 2.37 2.35 2.28 2.11 2.01 1.92 1.88 1.84 1.88 2.00 1.78 1.70 1.62 1.66 1.56 1.55 1.55 1.55 1.46 1.54 1.57 1.48 1.33 1.24 1.21 1.25 1.25 1.24 1.39 1.63 1.94 2.31 2.47 2.40 2.21 1.89
1.81 1.89 1.97 2.06 2.19 2.23 2.31 2.39 2.37 2.29 2.24 2.19 2.06 1.99 1.94 1.91 2.04 1.81 1.67 1.58 1.64 1.61 1.60 1.61 1.67 1.48 1.38 1.26 1.20 1.21 1.08 1.02 1.12 1.10 1.08 1.14 1.25 1.49 1.88 1.98 1.98 1.99 1.79
1.89 1.91 1.93 1.99 2.09 2.17 2.32 2.30 2.33 2.31 2.24 2.11 1.97 1.88 1.85 1.83 1.82 1.62 1.49 1.38 1.40 1.41 1.34 1.30 1.38 1.40 1.20 1.05 1.03 1.02 0.97 0.98 1.04 1.01 0.95 0.94 1.06 1.21 1.39 1.65 1.78 1.73 1.63
1.95 2.00 1.98 2.05 2.08 2.11 2.17 2.15 2.15 2.13 2.04 1.96 1.93 1.90 1.89 1.81 1.61 1.42 1.27 1.19 1.20 1.22 1.33 1.34 1.42 1.46 1.22 1.07 0.93 0.86 0.87 0.83 0.84 0.91 0.89 0.86 0.92 1.03 1.24 1.50 1.74 1.77 1.62
1.95 2.04 2.11 2.15 2.17 2.21 2.30 2.31 2.19 2.09 2.02 1.93 1.86 1.72 1.67 1.70 1.65 1.46 1.24 1.14 1.15 1.12 1.34 1.61 1.63 1.58 1.37 1.12 1.03 1.01 0.92 0.80 0.83 0.87 0.86 0.83 0.86 1.00 1.26 1.54 1.76 1.92 1.83
1.94 1.97 2.06 2.18 2.26 2.31 2.31 2.24 2.10 1.95 1.87 1.79 1.70 1.62 1.61 1.63 1.57 1.48 1.35 1.24 1.22 1.21 1.32 1.54 1.67 1.69 1.59 1.42 1.32 1.23 1.01 0.92 0.97 0.97 0.99 1.04 1.12 1.24 1.39 1.52 1.69 1.83 1.87
1.93 1.98 1.96 1.97 2.03 2.09 2.11 2.05 1.91 1.80 1.72 1.65 1.55 1.52 1.50 1.48 1.50 1.48 1.34 1.24 1.19 1.23 1.37 1.60 1.74 1.85 1.88 1.82 1.69 1.57 1.42 1.26 1.13 1.08 1.13 1.14 1.19 1.28 1.35 1.50 1.69 1.77 1.70
1.96 1.86 1.77 1.67 1.65 1.67 1.65 1.69 1.75 1.62 1.60 1.47 1.38 1.30 1.27 1.30 1.30 1.22 1.12 1.09 1.13 1.21 1.29 1.46 1.70 1.89 1.96 2.05 2.06 1.95 1.73 1.53 1.41 1.36 1.32 1.29 1.31 1.30 1.35 1.52 1.71 1.80 1.68
1.86 1.72 1.62 1.58 1.57 1.49 1.44 1.43 1.50 1.49 1.39 1.29 1.29 1.22 1.11 1.15 1.09 1.04 1.04 1.02 1.02 1.05 1.13 1.26 1.38 1.52 1.70 1.92 2.02 2.01 1.81 1.67 1.68 1.64 1.55 1.52 1.54 1.55 1.56 1.65 1.81 1.90 1.87
1.69 1.71 1.55 1.46 1.51 1.50 1.43 1.39 1.40 1.43 1.39 1.28 1.23 1.21 1.02 0.94 0.94 0.94 0.95 0.93 0.85 0.86 0.95 1.07 1.21 1.37 1.54 1.80 1.95 2.00 1.95 1.86 1.85 1.87 1.83 1.77 1.75 1.71 1.66 1.63 1.75 1.84 1.87
1.52 1.54 1.49 1.45 1.43 1.44 1.43 1.37 1.31 1.30 1.31 1.24 1.16 1.19 1.14 1.00 0.95 0.98 1.01 0.94 0.88 0.87 0.96 1.01 1.07 1.22 1.40 1.63 1.87 2.02 2.04 1.94 1.86 1.91 1.89 1.81 1.79 1.79 1.69 1.60 1.66 1.82 1.90
1.36 1.48 1.41 1.42 1.43 1.40 1.43 1.44 1.37 1.35 1.34 1.28 1.19 1.19 1.19 1.11 1.03 1.11 1.19 1.20 1.11 1.06 1.07 1.09 1.16 1.28 1.43 1.66 1.86 1.95 1.97 1.94 1.88 1.89 1.87 1.79 1.74 1.71 1.60 1.54 1.55 1.62 1.67
1.22 1.22 1.26 1.21 1.26 1.33 1.33 1.36 1.36 1.36 1.33 1.26 1.17 1.16 1.12 1.04 1.15 1.26 1.37 1.39 1.31 1.22 1.18 1.16 1.20 1.29 1.47 1.67 1.81 1.91 1.92 1.92 1.92 1.89 1.86 1.78 1.73 1.72 1.67 1.63 1.58 1.60 1.64
1.17 1.07 1.07 1.11 1.24 1.29 1.33 1.36 1.39 1.36 1.33 1.31 1.28 1.26 1.24 1.11 1.21 1.30 1.37 1.44 1.44 1.42 1.37 1.32 1.29 1.35 1.44 1.57 1.72 1.84 1.85 1.83 1.83 1.84 1.82 1.78 1.77 1.76 1.79 1.78 1.74 1.72 1.74
1.19 1.16 1.14 1.16 1.27 1.35 1.37 1.42 1.44 1.45 1.43 1.41 1.35 1.31 1.31 1.30 1.34 1.40 1.46 1.50 1.49 1.48 1.44 1.40 1.36 1.38 1.43 1.46 1.53 1.64 1.70 1.69 1.66 1.68 1.74 1.71 1.67 1.67 1.70 1.72 1.71 1.72 1.70
1.11 1.17 1.17 1.20 1.25 1.27 1.30 1.33 1.33 1.31 1.31 1.33 1.37 1.42 1.43 1.43 1.48 1.52 1.49 1.45 1.40 1.37 1.39 1.36 1.35 1.34 1.37 1.42 1.44 1.41 1.42 1.45 1.42 1.44 1.49 1.55 1.57 1.58 1.61 1.62 1.66 1.72 1.77
1.01 1.13 1.21 1.23 1.20 1.21 1.20 1.15 1.15 1.20 1.28 1.36 1.39 1.42 1.48 1.51 1.51 1.46 1.37 1.30 1.22 1.21 1.24 1.24 1.23 1.19 1.18 1.20 1.20 1.20 1.32 1.33 1.30 1.28 1.29 1.34 1.38 1.43 1.49 1.51 1.57 1.69 1.82
1.01 1.08 1.14 1.16 1.15 1.18 1.24 1.21 1.15 1.20 1.30 1.34 1.38 1.38 1.38 1.40 1.41 1.36 1.28 1.24 1.20 1.16 1.16 1.17 1.12 1.04 1.02 1.02 1.01 1.05 1.04 0.99 1.04 1.13 1.14 1.17 1.25 1.34 1.40 1.43 1.48 1.60 1.72